sat.trackr.live / text

‹ back to catalog

STARLINK-30913

NORAD 58388 · 2023-178Q

PAYLOAD ACTIVE UNKNOWN

§ Identity

Operator
Country
US
Launch date
2023-11-20
Launch site
AFWTR
Launch vehicle
Mass (kg)
RCS (m²)

Purposes: comms

External: N2YO · Heavens-Above · Gunter

§ Orbital elements

Epoch: 2026-05-24T22:22:54.441120Z

Period
93.85 min
Inclination
53.1615°
Eccentricity
0.0001399
Mean motion
15.34397871 rev/d
Perigee alt
461.8 km
Apogee alt
463.7 km
Semi-major
6,840.8 km
B*
9.2940e-5
RAAN
6.2896°
Arg perigee
84.4158°
Mean anomaly
275.7004°
Rev number
14,157

§ Raw data

STARLINK-309131 58388U 23178Q   26144.93257455  .00002765  00000+0  92940-4 0  99972 58388  53.1615   6.2896 0001399  84.4158 275.7004 15.34397871141579

JSON: /api/v1/satellites/58388 · /tle

For live sub-satellite position, see the globe view (requires WebGL).

§ Visibility from observer

Set your observer location to see the next 7 days of passes ≥ 10°. The values pass through the URL so the page stays shareable.

No JS? Fill the form by hand. The geolocation button needs JavaScript.